Regional Weather Roundup
Issued by NWS

Home | Current Version | Previous Version | Text Only | Print | Product List | Glossary Off
Versions: 1 2 3 4 5 6 7 8 9 10 11 12 13 14 15 16 17 18 19 20 21 22 23 24 25 26 27 28 29 30 31 32 33 34 35 36 37 38 39 40 41 42 43 44 45 46 47 48 49 50

000
ASUS43 KLSX 300207
RWRMO

WEATHER SUMMARY FOR MISSOURI
NATIONAL WEATHER SERVICE SPRINGFIELD MO
900 PM CDT WED MAR 29 2017

NOTE: "FAIR" INDICATES FEW OR NO CLOUDS BELOW 12,000 FEET WITH NO
       SIGNIFICANT WEATHER AND/OR OBSTRUCTIONS TO VISIBILITY.
       CURRENT SKY AND/OR WEATHER CONDITIONS ARE NOT AVAILABLE FOR
       CHILLICOTHE AND FARMINGTON.

MOZ001>031-035>038-043-044-053-054-300300-
...NORTHERN AND WESTERN MISSOURI...

CITY           SKY/WX    TMP DP  RH WIND       PRES   REMARKS
KANSAS CTY INT CLOUDY    54  53  97 E13       29.66S
KANSAS C DTWN  CLOUDY    56  53  90 NE8       29.65S
LEE`S SUMMIT   PTCLDY    54  54 100 NE7       29.65F
ST JOSEPH      MOCLDY    54  50  86 E8        29.70R
CHILLICOTHE      N/A     54  52  93 VRB7      29.75R
KIRKSVILLE     LGT RAIN  51  50  96 E14       29.77F FOG

$$
MOZ066>068-077>081-088>096-101>105-300300-
...SOUTHWEST MISSOURI...

CITY           SKY/WX    TMP DP  RH WIND       PRES   REMARKS
SPRINGFIELD    CLEAR     64  58  80 S10       29.65F
JOPLIN         PTCLDY    62  57  83 SW8       29.66R
BRANSON        MOCLDY    66  59  77 S7        29.70F THUNDER

$$
MOZ032>034-039>042-045>050-055>058-069>072-300300-
...CENTRAL MISSOURI...

CITY           SKY/WX    TMP DP  RH WIND       PRES   REMARKS
COLUMBIA       PTCLDY    60  58  92 E14       29.68F
JEFFERSON CITY MOCLDY    64  58  80 E15       29.67F
ROLLA          CLOUDY    62  61  96 SE6       29.70S
SEDALIA        PTCLDY    60  57  89 E8        29.65F
WHITEMAN AFB   MOCLDY    57  57 100 NE8       29.63F
WARRENSBURG    RAIN      57  55  94 W12       29.66R
OSAGE BEACH    CLOUDY    66  61  84 SE8G16    29.66F

$$
MOZ051-052-059>065-300300-
...EAST CENTRAL MISSOURI...

CITY           SKY/WX    TMP DP  RH WIND       PRES   REMARKS
ST LOUIS INTL  MOCLDY    63  53  70 E13       29.78F
SPIRIT OF STL  MOCLDY    65  56  72 E9        29.75F THUNDER
ST CHARLES     PTCLDY    59  54  83 E16       29.77F

$$
MOZ072>076-082>087-097>100-106>115-300300-
...SOUTH CENTRAL AND SOUTHEAST MISSOURI...

CITY           SKY/WX    TMP DP  RH WIND       PRES   REMARKS
CAPE GIRARDEAU PTCLDY    67  57  70 E9        29.79F
FARMINGTON     CLOUDY    65  59  81 SE10      29.78F
POPLAR BLUFF   CLOUDY    70  61  73 SE8       29.78R
WEST PLAINS    CLOUDY    71  59  65 SE8       29.71F

$$


USA.gov is the U.S. government's official web portal to all federal, state and local government web resources and services.